Time,TemperatureF,DewpointF,PressureIn,WindDirection,WindDirectionDegrees,WindSpeedMPH,WindSpeedGustMPH,Humidity,HourlyPrecipIn,Conditions,Clouds,dailyrainin,SoftwareType,DateUTC
2013-05-15 00:00:00,58.9,51.4,30.10,SW,225,0.0,5.0,76,0.00,,OVC,0.00,VWS V14.01,2013-05-15 04:00:00,
2013-05-15 01:00:00,58.3,51.8,30.09,SW,225,0.0,4.0,79,0.00,,OVC,0.00,VWS V14.01,2013-05-15 05:00:00,
2013-05-15 02:00:00,58.7,52.2,30.07,SSW,202,0.0,6.0,79,0.00,,OVC,0.00,VWS V14.01,2013-05-15 06:00:00,
2013-05-15 03:00:00,60.2,51.9,30.06,SE,135,0.0,4.0,74,0.00,,OVC,0.00,VWS V14.01,2013-05-15 07:00:00,
2013-05-15 04:00:00,60.6,51.5,30.06,NNE,22,0.0,3.0,72,0.00,,OVC,0.00,VWS V14.01,2013-05-15 08:00:00,
2013-05-15 05:00:00,59.5,51.6,30.05,SSW,202,0.0,4.0,75,0.00,,OVC,0.00,VWS V14.01,2013-05-15 09:00:00,
2013-05-15 06:00:00,61.5,52.0,30.05,SW,225,0.0,2.0,71,0.00,,OVC,0.00,VWS V14.01,2013-05-15 10:00:00,
2013-05-15 07:00:00,63.1,50.7,30.07,SW,225,1.0,8.0,64,0.00,,OVC,0.00,VWS V14.01,2013-05-15 11:00:00,
2013-05-15 08:00:00,63.9,51.1,30.07,SW,225,2.0,11.0,63,0.00,,OVC,0.00,VWS V14.01,2013-05-15 12:00:00,
2013-05-15 09:00:00,65.4,52.1,30.09,SW,225,1.0,8.0,62,0.00,,OVC,0.00,VWS V14.01,2013-05-15 13:00:00,
2013-05-15 10:00:00,68.8,55.3,30.09,SW,225,0.0,6.0,62,0.00,,OVC,0.00,VWS V14.01,2013-05-15 14:00:00,
2013-05-15 11:00:00,69.0,58.0,30.09,SSE,158,0.0,3.0,68,0.00,,OVC,0.00,VWS V14.01,2013-05-15 15:00:00,
2013-05-15 12:00:00,72.7,59.4,30.08,South,180,0.0,4.0,63,0.00,,OVC,0.00,VWS V14.01,2013-05-15 16:00:00,
2013-05-15 13:00:00,72.7,59.4,30.08,South,180,0.0,4.0,63,0.00,,,0.00,VWS V14.01,2013-05-15 17:00:00,
2013-05-15 13:14:00,78.9,61.9,30.05,WSW,242,0.0,2.0,56,0.00,,OVC,0.00,VWS V14.01,2013-05-15 17:14:00,
2013-05-15 13:19:00,79.5,61.4,30.05,WSW,247,1.0,3.0,54,0.00,,OVC,0.00,VWS V14.01,2013-05-15 17:19:00,
2013-05-15 13:26:00,80.2,61.0,30.05,SW,231,0.0,3.0,52,0.00,,OVC,0.00,VWS V14.01,2013-05-15 17:26:00,
2013-05-15 13:32:00,80.6,60.3,30.05,WSW,248,0.0,5.0,50,0.00,,OVC,0.00,VWS V14.01,2013-05-15 17:32:00,
2013-05-15 13:40:00,81.2,61.9,30.04,SW,216,0.0,5.0,52,0.00,,OVC,0.00,VWS V14.01,2013-05-15 17:40:00,
2013-05-15 13:45:00,81.2,61.4,30.04,West,270,0.0,5.0,51,0.00,,OVC,0.00,VWS V14.01,2013-05-15 17:45:00,
2013-05-15 13:50:00,81.6,62.3,30.04,West,277,0.0,5.0,52,0.00,,OVC,0.00,VWS V14.01,2013-05-15 17:50:00,
2013-05-15 13:56:00,81.9,62.0,30.04,West,265,0.0,5.0,51,0.00,,OVC,0.00,VWS V14.01,2013-05-15 17:56:00,
2013-05-15 14:00:00,81.9,62.0,30.04,West,271,0.0,5.0,51,0.00,,OVC,0.00,VWS V14.01,2013-05-15 18:00:00,
2013-05-15 14:01:00,82.0,62.1,30.03,SW,217,0.0,2.0,51,0.00,,OVC,0.00,VWS V14.01,2013-05-15 18:01:00,
2013-05-15 14:06:00,82.6,62.7,30.03,SW,224,1.0,3.0,51,0.00,,OVC,0.00,VWS V14.01,2013-05-15 18:06:00,
2013-05-15 14:11:00,82.8,61.1,30.03,WSW,238,1.0,6.0,48,0.00,,OVC,0.00,VWS V14.01,2013-05-15 18:11:00,
2013-05-15 14:16:00,82.5,62.0,30.03,WSW,255,0.0,6.0,50,0.00,,OVC,0.00,VWS V14.01,2013-05-15 18:16:00,
2013-05-15 14:22:00,82.8,61.1,30.02,SSW,206,1.0,6.0,48,0.00,,OVC,0.00,VWS V14.01,2013-05-15 18:22:00,
2013-05-15 15:00:00,84.8,62.3,30.01,West,270,1.0,6.0,47,0.00,,OVC,0.00,VWS V14.01,2013-05-15 19:00:00,
2013-05-15 16:00:00,86.0,62.8,29.99,SW,225,1.0,5.0,46,0.00,,OVC,0.00,VWS V14.01,2013-05-15 20:00:00,
2013-05-15 17:00:00,85.4,61.7,29.96,SW,225,1.0,5.0,45,0.00,,OVC,0.00,VWS V14.01,2013-05-15 21:00:00,
2013-05-15 18:00:00,84.6,59.7,29.95,SW,225,1.0,9.0,43,0.00,,OVC,0.00,VWS V14.01,2013-05-15 22:00:00,
2013-05-15 19:00:00,82.9,58.8,29.94,SSW,202,1.0,6.0,44,0.00,,OVC,0.00,VWS V14.01,2013-05-15 23:00:00,
2013-05-15 20:00:00,76.9,60.5,29.94,SW,225,0.0,3.0,57,0.00,,OVC,0.00,VWS V14.01,2013-05-16 00:00:00,
2013-05-15 21:00:00,72.2,59.4,29.94,NNE,22,0.0,2.0,64,0.00,,OVC,0.00,VWS V14.01,2013-05-16 01:00:00,
2013-05-15 22:00:00,70.0,56.4,29.96,NNE,22,0.0,1.0,62,0.00,,OVC,0.00,VWS V14.01,2013-05-16 02:00:00,
2013-05-15 23:00:00,69.3,53.0,29.97,NNE,22,0.0,0.0,56,0.00,,OVC,0.00,VWS V14.01,2013-05-16 03:00:00,